Overview Statistics Trail Chart Weather Telemetry Raw packets
 

This is the latest recevied weather packets stored in our database for station/object G0TQM-11. If no packets are shown the sender has not sent any weather packets the latest 10 day(s).

<< 14 15 16 17 18 19 20 >>
Time Temp. Humidity Pressure Rain* Wind** Luminosity Snow
1788231710 17.22° C 53% 1014.9 hPa - - - -
1788230510 17.22° C 54% 1014.9 hPa - - - -
1788229310 17.22° C 54% 1014.9 hPa - - - -
1788228110 16.67° C 55% 1014.9 hPa - - - -
1788226909 17.22° C 54% 1014.9 hPa - - - -
1788225709 17.22° C 55% 1015 hPa - - - -
1788224509 17.78° C 54% 1014.9 hPa - - - -
1788223309 17.78° C 53% 1014.9 hPa - - - -
1788222125 17.78° C 53% 1014.8 hPa - - - -
1788220909 17.78° C 53% 1014.8 hPa - - - -
1788219709 17.78° C 55% 1014.9 hPa - - - -
1788218508 17.78° C 55% 1014.9 hPa - - - -
1788217308 17.78° C 56% 1015 hPa - - - -
1788216108 18.33° C 56% 1015 hPa - - - -
1788214908 18.33° C 56% 1014.9 hPa - - - -
1788213708 18.33° C 55% 1014.8 hPa - - - -
1788212508 18.89° C 54% 1014.7 hPa - - - -
1788211308 19.44° C 53% 1014.7 hPa - - - -
1788210107 19.44° C 50% 1014.5 hPa - - - -
1788208907 19.44° C 48% 1014.4 hPa - - - -
1788207707 19.44° C 48% 1014.3 hPa - - - -
1788206507 19.44° C 49% 1014.2 hPa - - - -
1788205307 20° C 51% 1014.1 hPa - - - -
1788204107 19.44° C 52% 1014 hPa - - - -
1788202907 20° C 51% 1013.8 hPa - - - -

* Rain since midnight (hover to see other rain measurements)
** Current wind speed in m/s (hover to see current wind gust speed)